Home   Weather   Almaty   Past weeks

Flag for Kazakhstan Past Weather in Almaty, Kazakhstan — Yesterday and Last 2 Weeks

Now
25 °F

Light snow. Ice fog.


Feels Like: 20 °F
Forecast: 24 / 29 °F
Wind: 3 mph from West

Location: Almaty Airport

Current Time: Dec 10, 2016 at 5:07:58 am

Latest Report: Dec 10, 2016 at 4:30 am


Visibility: 3 mi

Pressure: 30.04 "Hg (27.17 "Hg at 790m altitude)

Humidity: 93%

Dew Point: 23 °F

Location of AlmatyLocation

Past Weather in Almaty — Graph

°F

Almaty Temperature Yesterday

Maximum temperature yesterday: 36 °F (at 12:30 pm)
Minimum temperature yesterday: 27 °F (at 5:30 am)
Average temperature yesterday: 31 °F

High & Low Weather Summary for the Past Weeks

 TemperatureHumidityPressure
High50 °F (Dec 4, 9:30 am)100% (Dec 5, 8:30 pm)30.63 "Hg (Dec 5, 8:30 pm)
Low3 °F (Nov 25, 4:00 am)48% (Dec 2, 1:00 pm)29.80 "Hg (Dec 7, 3:30 pm)
Average27 °F84%30.25 "Hg
* Reported Nov 25 4:00 am — Dec 10 4:00 am, Almaty, Weather by CustomWeather, © 2016

Note: Actual official high and low records may vary slightly from our data, if they occured in-between our weather recording intervals... More about our weather records

Advertising

Almaty Weather History for the Previous 24 Hours

Scroll right to see more
 ConditionsComfort  
Time TempWeatherWind HumidityBarometerVisibility
4:00 am
Sat, Dec 10
25 °FLight snow. Ice fog.3 mph93%30.07 "Hg3 mi
3:30 am25 °FLight snow. Ice fog.3 mph93%30.07 "Hg2 mi
3:00 am25 °FLight snow. Ice fog.3 mph93%30.07 "Hg2 mi
2:30 am25 °FLight snow. Mostly cloudy.1 mph93%30.07 "HgN/A
2:00 am25 °FLight snow. Mostly cloudy.3 mph93%30.07 "HgN/A
1:30 am25 °FLight snow. Mostly cloudy.3 mph100%30.07 "HgN/A
1:00 am27 °FLight snow. Ice fog.3 mph93%30.09 "Hg3 mi
12:30 am27 °FLight snow. Ice fog.3 mph93%30.09 "Hg3 mi
12:00 am27 °FLight snow. Ice fog.8 mph93%30.09 "Hg3 mi
11:30 pm
Fri, Dec 9
27 °FLight snow. Ice fog.6 mph100%30.12 "Hg1 mi
11:00 pm28 °FLight snow. Ice fog.8 mph93%30.12 "Hg1 mi
10:30 pm30 °FLight snow. Mostly cloudy.8 mph100%30.12 "HgN/A
10:00 pm30 °FLight snow. Mostly cloudy.6 mph100%30.15 "HgN/A
9:30 pm30 °FLight snow. Ice fog.8 mph100%30.15 "Hg3 mi
9:00 pm30 °FLight snow. Ice fog.10 mph100%30.15 "Hg3 mi
8:30 pm32 °FLight snow. Ice fog.8 mph93%30.18 "Hg2 mi
8:00 pm32 °FLight rain. Ice fog.8 mph93%30.18 "Hg1 mi
7:30 pm32 °FLight rain. Ice fog.8 mph93%30.18 "Hg1 mi
7:00 pm32 °FLight rain. Ice fog.6 mph93%30.21 "Hg1 mi
6:30 pm32 °FLight rain. Ice fog.6 mph93%30.21 "Hg1 mi
6:00 pm32 °FLight rain. Ice fog.6 mph93%30.18 "Hg2 mi
5:30 pm32 °FLight rain. Ice fog.8 mph93%30.18 "Hg2 mi
5:00 pm32 °FLight rain. Ice fog.3 mph100%30.18 "Hg1 mi
4:30 pm34 °FLight rain. Fog.1 mph87%30.15 "Hg1 mi
4:00 pm34 °FLight rain. Fog.3 mph93%30.15 "Hg3 mi
3:30 pm34 °FLight rain. Fog.No wind93%30.12 "Hg3 mi
3:00 pm34 °FLight rain. Fog.3 mph93%30.12 "Hg3 mi
2:30 pm34 °FLight rain. Fog.6 mph93%30.12 "Hg3 mi
2:00 pm36 °FFog.6 mph87%30.09 "Hg3 mi
1:30 pm36 °FFog.6 mph93%30.09 "Hg3 mi
1:00 pm36 °FFog.6 mph87%30.09 "Hg3 mi
12:30 pm36 °FFog.6 mph93%30.09 "Hg3 mi
12:00 pm34 °FFog.6 mph100%30.09 "Hg3 mi
11:30 am34 °FFog.3 mph93%30.12 "Hg3 mi
10:30 am32 °FIce fog.6 mph93%30.12 "Hg2 mi
10:00 am30 °FIce fog.3 mph100%30.12 "Hg1 mi
9:30 am30 °FIce fog.8 mph100%30.09 "Hg1 mi
9:00 am30 °FIce fog.8 mph100%30.09 "Hg1 mi
8:30 am30 °FIce fog.8 mph93%30.09 "Hg1 mi
8:00 am30 °FIce fog.10 mph93%30.09 "Hg0 mi
7:30 am28 °FIce fog.3 mph93%30.09 "Hg0 mi
7:00 am28 °FIce fog.3 mph93%30.09 "Hg0 mi
6:30 am28 °FIce fog.3 mph93%30.09 "Hg0 mi
6:00 am28 °FIce fog.3 mph93%30.09 "Hg0 mi
5:30 am27 °FIce fog.6 mph100%30.09 "Hg0 mi
5:00 am28 °FIce fog.3 mph100%30.09 "Hg0 mi
Weather by CustomWeather, © 2016

See weather overviewHow to use our weather pages